Weather History for Sisters Island, BC

Change the Weather History Date:

Wednesday, January 16, 2013

  Actual Average Record
Temperature  
Mean Temperature 38 °F -  
Max Temperature 39 °F - - ()
Min Temperature 38 °F - - ()
Degree Days  
Heating Degree Days 26    
Moisture  
Dew Point 34 °F    
Average Humidity 81    
Maximum Humidity 86    
Minimum Humidity 72    
Precipitation  
Precipitation 0.00 in - - ()
Sea Level Pressure  
Sea Level Pressure 30.61 in    
Wind  
Wind Speed 5 mph ()    
Max Wind Speed 10 mph    
Max Gust Speed -    
T = Trace of Precipitation, MM = Missing Value Source: Averaged Metar Reports

Daily Weather History Graph

Daily Weather History Graph

Search for Another Location

Airport:

Trip Planner

Search our weather history database for the weather conditions in past years. The results will help you decide how hot, cold, wet, or windy it might be!

Date:

Astronomy

Jan. 16, 2013 Rise Set
Actual Time 8:07 AM PST 4:48 PM PST
Civil Twilight 7:30 AM PST 5:24 PM PST
Nautical Twilight 6:51 AM PST 6:04 PM PST
Astronomical Twilight 6:12 AM PST 6:42 PM PST
Moon 10:11 AM PST (1/16) 11:24 PM PST (1/16)
Length of Visible Light 9h 53m
Length of Day
8h 41m
Waxing Crescent, 29% of the Moon is Illuminated
Jan 16
Waxing Crescent
Jan 18
First Quarter
Jan 26
Full
Feb 3
Last Quarter
Feb 9
New

Hourly Weather History & Observations

Time (PST) Temp. Windchill Dew Point Humidity Pressure Visibility Wind Dir Wind Speed Gust Speed Precip Events Conditions
12:00 AM 38.3 °F 31.9 °F 33.3 °F 82% 30.67 in - WSW 9.2 mph - N/A   Unknown
1:00 AM 38.5 °F 32.1 °F 33.1 °F 81% 30.67 in - WSW 9.2 mph - N/A   Unknown
2:00 AM 38.8 °F 33.8 °F 33.6 °F 82% 30.68 in - WSW 6.9 mph - N/A   Unknown
3:00 AM 38.8 °F 33.2 °F 33.4 °F 81% 30.67 in - SW 8.1 mph - N/A   Unknown
4:00 AM 39 °F - 33 °F 72% 30.66 in - WSW 4.6 mph - -  
4:00 AM 39.0 °F 35.7 °F 33.1 °F 79% 30.66 in - WSW 4.6 mph - N/A   Unknown
5:00 AM 39.2 °F 37.0 °F 33.3 °F 79% 30.64 in - SW 3.5 mph - N/A   Unknown
6:00 AM 39.2 °F 37.0 °F 32.9 °F 78% 30.63 in - SW 3.5 mph - N/A   Unknown
7:00 AM 38.8 °F 34.6 °F 31.8 °F 76% 30.63 in - SW 5.8 mph - N/A   Unknown
8:00 AM 38.8 °F 35.4 °F 32.9 °F 79% 30.63 in - SW 4.6 mph - N/A   Unknown
9:00 AM 38.8 °F 36.5 °F 33.1 °F 80% 30.64 in - South 3.5 mph - N/A   Unknown
10:00 AM 39 °F - 33 °F 73% 30.65 in - SSW 2.3 mph - -  
10:00 AM 39.2 °F - 33.4 °F 80% 30.65 in - SSW 2.3 mph - N/A   Unknown
11:00 AM 39.0 °F 36.8 °F 33.6 °F 81% 30.63 in - East 3.5 mph - N/A   Unknown
12:00 PM 38.7 °F 36.3 °F 33.8 °F 83% 30.62 in - East 3.5 mph - N/A   Unknown
1:00 PM 38.8 °F 32.1 °F 34.2 °F 83% 30.60 in - ESE 10.4 mph - N/A   Unknown
2:00 PM 38.3 °F 32.5 °F 33.6 °F 83% 30.58 in - SE 8.1 mph - N/A   Unknown
3:00 PM 38.5 °F 32.7 °F 34.0 °F 84% 30.58 in - SE 8.1 mph - N/A   Unknown
4:00 PM 39 °F - 34 °F 77% 30.58 in - East 5.8 mph - -  
4:00 PM 38.8 °F 34.6 °F 34.3 °F 84% 30.58 in - East 5.8 mph - N/A   Unknown
5:00 PM 38.7 °F 35.2 °F 34.3 °F 84% 30.58 in - East 4.6 mph - N/A   Unknown
6:00 PM 38.5 °F 32.7 °F 34.7 °F 86% 30.56 in - East 8.1 mph - N/A   Unknown
7:00 PM 38.3 °F 33.9 °F 34.3 °F 86% 30.56 in - East 5.8 mph - N/A   Unknown
8:00 PM 38.5 °F 35.0 °F 34.0 °F 84% 30.56 in - East 4.6 mph - N/A   Unknown
9:00 PM 38.5 °F 35.0 °F 34.0 °F 84% 30.55 in - East 4.6 mph - N/A   Unknown
10:00 PM 38 °F - 34 °F 79% 30.55 in - NE 4.6 mph - -  
10:00 PM 38.3 °F 34.8 °F 33.8 °F 84% 30.55 in - NE 4.6 mph - N/A   Unknown
11:00 PM 38.5 °F - 34.0 °F 84% 30.55 in - East 1.2 mph - N/A   Unknown